Weather Roundup
Issued by NWS Springfield, MO

Home | Current Version | Previous Version | Text Only | Print | Product List | Glossary On
Versions: 1 2 3 4 5 6 7 8 9 10 11 12 13 14 15 16 17 18 19 20 21 22 23 24 25 26 27 28 29 30 31 32 33 34 35 36 37 38 39 40 41 42 43 44 45 46 47 48 49 50
000
NZUS99 KSGF 250857
HRRSGF

HOURLY WEATHER
NATIONAL WEATHER SERVICE SPRINGFIELD MO
400 AM CDT SUN JUN 25 2017

......SGF CWA......

CITY           SKY/WX    TMP DP  RH WIND       PRES   REMARKS
SPRINGFIELD    PTCLDY    61  54  77 S3        30.25R
JOPLIN         CLOUDY    63  60  90 S3        30.26R
WEST PLAINS    PTCLDY    58  50  75 CALM      30.25R
ROLLA          PTCLDY    55  50  83 SW10      30.20S

......SURROUNDING SGF CWA......

CITY           SKY/WX    TMP DP  RH WIND       PRES   REMARKS
CHANUTE        MOCLDY    62  54  74 W3        30.26R
PARSONS        CLOUDY    60  57  89 CALM      30.27R
COFFEYVILLE    CLOUDY    65  59  81 N3        30.26R
EMPORIA        LGT RAIN  62  56  80 SW6       30.29R
HARRISON AR    CLOUDY    60  54  80 W5        30.26R

......KANSAS AND MISSOURI......

CITY           SKY/WX    TMP DP  RH WIND       PRES   REMARKS
KANSAS CTY INT PTCLDY    61  50  67 W8        30.22R
SEDALIA        MOCLDY    61  54  77 SW9       30.22R
ST JOSEPH      CLEAR     55  50  83 CALM      30.22R
ST LOUIS       PTCLDY    65  47  52 SW9       30.17R
WICHITA        CLOUDY    68  55  63 SE3       30.27R
TOPEKA         CLOUDY    66  52  60 W5        30.24R
OLATHE         PTCLDY    65  51  60 W6        30.23S

......TENNESSEE......

CITY           SKY/WX    TMP DP  RH WIND       PRES   REMARKS
MEMPHIS        NOT AVBL
NASHVILLE      MOCLDY    63  55  75 CALM      30.18R

......ARKANSAS.......

CITY           SKY/WX    TMP DP  RH WIND       PRES   REMARKS
FAYETTEVILLE   CLOUDY    60  59  96 S3        30.26S
FT SMITH       MOCLDY    70  60  70 CALM      30.22S
LITTLE ROCK    CLOUDY    68  61  78 NW3       30.20R

......OKLAHOMA.......

CITY           SKY/WX    TMP DP  RH WIND       PRES   REMARKS
TULSA          CLOUDY    70  58  65 SE3       30.23S
PONCA CITY     CLEAR     68  55  63 SE3       30.25S
MCALESTER      CLOUDY    69  63  81 CALM      30.24R
OKLAHOMA CITY  MOCLDY    66  56  70 E5        30.25F

......IOWA............

CITY           SKY/WX    TMP DP  RH WIND       PRES   REMARKS
DES MOINES     NOT AVBL
QUAD CITIES    CLEAR     53  49  86 SW3       30.11S

......ILLINOIS........

CITY           SKY/WX    TMP DP  RH WIND       PRES   REMARKS
QUINCY         MOCLDY    55  51  86 SW5       30.16R
CHICAGO        PTCLDY    56  47  71 W8        30.04F



USA.gov is the U.S. government's official web portal to all federal, state and local government web resources and services.